Location: Ladrillo (historical)
(32.8195°N, 117.2231°W)
Time: 23:59:49
(UTC+00:00)

Altair - Pass Details

Date: 27 February 2021
Orbit: 1501 x 1683 km, 47.2° (Epoch: 16 April)

Event Time Altitude Azimuth Distance (km) Brightness Sun altitude
Rises 02:41:18 0° 225° (SW) 4,620 10.8 -12.8°
Reaches altitude 10° 02:44:17 10° 224° (SW) 3,644 10.1 -13.4°
Maximum altitude 02:53:26 79° 139° (SE) 1,544 7.4 -15.3°
Enters shadow 03:01:58 14° 55° (NE) 3,461 8.9 -17.1°
